Location: Bosmont
(49.7318°N, 3.8587°E)
Time: 13:57:33
(UTC+00:00)

FO-29 - Pass Details

Date: 02 December 2023
Orbit: 799 x 1322 km, 98.6° (Epoch: 04 March)

Event Time Altitude Azimuth Distance (km) Brightness Sun altitude
Rises 04:50:49 0° 9° (N) 4,035 12.7 -23.4°
Reaches altitude 10° 04:53:51 10° 356° (N) 3,144 12.0 -22.9°
Enters shadow 04:57:50 23° 325° (NW) 2,389 11.1 -22.2°
